Location: Voyageurs National Park
(48.5020°N, 92.9292°W)
Time: 02:51:35
(UTC-05:00)

PCSat - Visible Passes

Search period start: 22 August 2014 00:00
Search period end: 01 September 2014 00:00
Orbit: 786 x 796 km, 67.1° (Epoch: 21 August)

Date Brightness Start Highest point End Pass type
(mag) Time Alt. Az. Time Alt. Az. Time Alt. Az.
22 Aug 12.8 00:16:13 10° NNW 00:17:20 11° N 00:18:26 10° N visible
22 Aug 12.4 01:59:46 10° NNW 02:03:11 17° NNE 02:06:35 10° ENE visible
22 Aug 10.4 03:42:35 10° NNW 03:47:54 51° NE 03:53:11 10° SE visible
22 Aug 10.3 05:26:23 10° NW 05:31:07 31° WSW 05:35:49 10° S visible
22 Aug 12.2 21:56:39 10° W 22:00:42 21° NNW 22:04:47 10° NNE visible
22 Aug 12.7 23:45:01 10° NNW 23:46:21 11° N 23:47:41 10° N visible
23 Aug 12.5 01:29:20 10° NNW 01:32:18 15° NNE 01:35:15 10° NE visible
23 Aug 10.8 03:12:05 10° NNW 03:17:14 41° NE 03:22:21 10° ESE visible
23 Aug 9.9 04:55:37 10° NW 05:00:41 41° WSW 05:05:43 10° S visible
23 Aug 12.0 21:25:30 10° W 21:29:54 25° NW 21:34:20 10° NNE visible
23 Aug 12.7 23:13:40 10° NNW 23:15:23 11° N 23:17:06 10° N visible
24 Aug 12.5 00:58:53 10° N 01:01:22 13° NNE 01:03:52 10° NE visible
24 Aug 11.2 02:41:37 10° NNW 02:46:32 33° NE 02:51:25 10° ESE visible
24 Aug 9.6 04:24:56 10° NW 04:30:13 54° WSW 04:35:29 10° SSE visible
24 Aug 11.7 20:54:25 10° W 20:59:08 29° NW 21:03:52 10° NNE visible
24 Aug 12.6 22:42:15 10° NW 22:44:25 12° NNW 22:46:36 10° N visible
25 Aug 12.5 00:28:24 10° N 00:30:26 12° NNE 00:32:27 10° NE visible
25 Aug 11.5 02:11:09 10° NNW 02:15:47 28° NE 02:20:24 10° E visible
25 Aug 9.4 03:54:18 10° NW 03:59:43 71° WSW 04:05:06 10° SSE visible
25 Aug 11.3 05:40:19 10° W 05:42:09 12° WSW 05:44:00 10° WSW visible
25 Aug 12.5 22:10:50 10° NW 22:13:29 14° NNW 22:16:08 10° N visible
25 Aug 12.5 23:57:53 10° N 23:59:28 11° N 00:01:03 10° NNE visible
26 Aug 11.7 01:40:41 10° NNW 01:45:00 23° NE 01:49:18 10° E visible
26 Aug 9.5 03:23:42 10° NW 03:29:11 89° NE 03:32:53 21° SSE visible
26 Aug 11.0 05:08:36 10° WNW 05:11:51 16° WSW 05:13:21 15° SW visible
26 Aug 12.3 21:39:28 10° WNW 21:42:35 15° NNW 21:45:42 10° NNE visible
26 Aug 12.6 23:27:16 10° N 23:28:30 11° N 23:29:44 10° NNE visible
27 Aug 11.9 01:10:15 10° NNW 01:14:11 20° NNE 01:18:07 10° ENE visible
27 Aug 9.7 02:53:09 10° NNW 02:58:36 70° NE 03:00:23 43° ESE visible
27 Aug 10.8 04:37:27 10° WNW 04:40:58 21° W 04:40:58 21° W visible
27 Aug 12.2 21:08:09 10° WNW 21:11:42 17° NNW 21:15:15 10° NNE visible
27 Aug 12.5 22:56:25 10° NNW 22:57:31 11° N 22:58:36 10° NNE visible
28 Aug 12.1 00:39:48 10° NNW 00:43:20 17° NNE 00:46:52 10° ENE visible
28 Aug 10.1 02:22:38 10° NNW 02:27:59 55° NE 02:28:56 48° E visible
28 Aug 10.8 04:06:32 10° NW 04:09:34 25° W 04:09:34 25° W visible
28 Aug 12.2 20:36:54 10° WNW 20:40:50 20° NNW 20:44:48 10° NNE visible
28 Aug 12.5 22:25:17 10° NNW 22:26:32 11° N 22:27:47 10° N visible
29 Aug 12.2 00:09:21 10° NNW 00:12:27 15° NNE 00:15:32 10° ENE visible
29 Aug 10.5 01:52:08 10° NNW 01:57:20 44° NE 01:57:58 42° ENE visible
29 Aug 10.8 03:35:44 10° NW 03:38:37 27° WNW 03:38:37 27° WNW visible
29 Aug 12.4 21:53:57 10° NNW 21:55:33 11° N 21:57:09 10° N visible
29 Aug 12.2 23:38:54 10° N 23:41:32 13° NNE 23:44:10 10° NE visible
30 Aug 10.8 01:21:39 10° NNW 01:26:38 35° NE 01:27:14 34° ENE visible
30 Aug 10.8 03:05:01 10° NW 03:07:54 30° WNW 03:07:54 30° WNW visible
30 Aug 12.3 21:22:33 10° NW 21:24:36 12° NNW 21:26:38 10° N visible
30 Aug 12.2 23:08:26 10° N 23:10:36 12° NNE 23:12:45 10° NE visible
31 Aug 11.1 00:51:10 10° NNW 00:55:54 29° NE 00:56:41 28° NE visible
31 Aug 10.7 02:34:22 10° NW 02:37:22 33° NW 02:37:22 33° NW visible
31 Aug 12.2 20:51:08 10° NW 20:53:39 13° NNW 20:56:10 10° N visible
31 Aug 12.3 22:37:56 10° N 22:39:38 11° N 22:41:21 10° NNE visible
